Location: Chiroubles
(46.1812°N, 4.6660°E)
Time: 03:06:29
(UTC+00:00)

Explorer 7 - Pass Details

Date: 27 November 2020
Orbit: 484 x 678 km, 50.3° (Epoch: 25 January)

Event Time Altitude Azimuth Distance (km) Brightness Sun altitude
Exits shadow 06:09:13 11° 294° (WNW) 1,763 8.7 -8.5°
Maximum altitude 06:13:07 55° 13° (NNE) 640 7.1 -7.9°
Drops below altitude 10° 06:16:59 10° 92° (E) 1,732 10.7 -7.3°
Sets 06:19:09 0° 97° (E) 2,594 12.0 -7.0°
